EW6430 Weather Reports


time (UTC)temp
C
wind
direction
speed
KPH
gust
KPH
rain 1hr
cm
rain 24hr
cm
rain mn
cm
humidity
%
barometer
mb
20260510170827 20 88 3.2 9.7 0.00 0.00 0.00 50 1008.8
20260510170325 20 93 3.2 9.7 0.00 0.00 0.00 49 1008.9
20260510170040 20 67 1.6 6.4 0.00 0.00 0.00 49 1009.2
20260510165237 20 148 3.2 8.0 0.00 0.00 0.00 49 1009.1
20260510164722 20 146 4.8 8.0 0.00 0.00 0.00 49 1009.1
20260510164556 20 148 3.2 8.0 0.00 0.00 0.00 48 1009.4
20260510163705 20 155 3.2 6.4 0.00 0.00 0.00 48 1009.3
20260510163024 20 113 3.2 9.7 0.00 0.00 0.00 48 1009.6
20260510162637 20 107 3.2 9.7 0.00 0.00 0.00 47 1009.4
20260510162128 20 72 1.6 9.7 0.00 0.00 0.00 47 1009.3
20260510161628 20 79 3.2 9.7 0.00 0.00 0.00 46 1009.3
20260510161551 20 76 1.6 9.7 0.00 0.00 0.00 46 1009.6
20260510161116 20 124 4.8 9.7 0.00 0.00 0.00 46 1009.5
20260510160549 20 134 4.8 11.3 0.00 0.00 0.00 46 1009.5
20260510160116 20 117 3.2 11.3 0.00 0.00 0.00 47 1009.8
20260510160052 20 122 3.2 11.3 0.00 0.00 0.00 47 1009.6
20260510155532 20 133 4.8 8.0 0.00 0.00 0.00 46 1009.7
20260510155021 20 132 4.8 9.7 0.00 0.00 0.00 46 1009.7
20260510154552 20 51 4.8 9.7 0.00 0.00 0.00 45 1010.0
20260510154511 20 51 3.2 9.7 0.00 0.00 0.00 45 1009.7
20260510154009 20 87 3.2 9.7 0.00 0.00 0.00 46 1009.7
20260510153503 20 154 3.2 11.3 0.00 0.00 0.00 46 1009.8
20260510153036 20 223 3.2 11.3 0.00 0.00 0.00 46 1010.3
20260510152947 20 225 3.2 11.3 0.00 0.00 0.00 45 1010.0
20260510152447 21 181 3.2 11.3 0.00 0.00 0.00 45 1010.0
20260510151931 21 250 4.8 9.7 0.00 0.00 0.00 46 1010.1
20260510151424 20 167 4.8 11.3 0.00 0.00 0.00 45 1010.2
20260510150418 21 156 4.8 14.5 0.00 0.00 0.00 45 1010.3
20260510150034 21 159 8.0 14.5 0.00 0.00 0.00 45 1010.6
20260510145852 21 92 1.6 11.3 0.00 0.00 0.00 44 1010.3
20260510145344 21 300 1.6 4.8 0.00 0.00 0.00 46 1010.4
20260510144828 21 302 3.2 12.9 0.00 0.00 0.00 45 1010.4
20260510144513 21 238 1.6 12.9 0.00 0.00 0.00 45 1010.7
20260510143815 21 319 3.2 11.3 0.00 0.00 0.00 45 1010.4
20260510143305 21 5 3.2 11.3 0.00 0.00 0.00 45 1010.5
20260510143040 21 311 1.6 11.3 0.00 0.00 0.00 47 1010.9
20260510142806 21 243 4.8 11.3 0.00 0.00 0.00 46 1010.6
20260510142246 20 229 3.2 9.7 0.00 0.00 0.00 45 1010.6
20260510141735 20 62 4.8 11.3 0.00 0.00 0.00 47 1010.6
20260510141505 20 104 1.6 12.9 0.00 0.00 0.00 47 1010.9
20260510141236 20 150 6.4 14.5 0.00 0.00 0.00 45 1010.6
20260510140716 20 148 4.8 9.7 0.00 0.00 0.00 48 1010.8
20260510140204 20 248 4.8 12.9 0.00 0.00 0.00 47 1010.9
20260510140037 20 248 3.2 12.9 0.00 0.00 0.00 47 1011.3
20260510135141 20 283 3.2 9.7 0.00 0.00 0.00 48 1011.2
20260510134641 20 229 4.8 11.3 0.00 0.00 0.00 48 1011.3
20260510134506 20 227 3.2 9.7 0.00 0.00 0.00 48 1011.7
20260510134121 20 86 3.2 11.3 0.00 0.00 0.00 48 1011.3
20260510133615 20 194 4.8 16.1 0.00 0.00 0.00 48 1011.3
20260510133054 20 205 6.4 16.1 0.00 0.00 0.00 50 1011.4
20260510133037 20 200 8.0 16.1 0.00 0.00 0.00 50 1011.8
20260510132030 20 109 6.4 12.9 0.00 0.00 0.00 48 1011.5
20260510131603 20 110 6.4 12.9 0.00 0.00 0.00 49 1011.9
20260510131521 20 171 4.8 12.9 0.00 0.00 0.00 49 1011.6
20260510130015 20 184 6.4 9.7 0.00 0.00 0.00 49 1012.2
20260510125951 20 187 4.8 12.9 0.00 0.00 0.00 49 1011.8
20260510125450 20 242 8.0 16.1 0.00 0.00 0.00 48 1011.9
20260510124938 20 239 8.0 16.1 0.00 0.00 0.00 48 1012.0
20260510124507 20 234 6.4 16.1 0.00 0.00 0.00 49 1012.4
20260510124432 20 244 4.8 17.7 0.00 0.00 0.00 50 1012.0
20260510123035 19 94 1.6 11.3 0.00 0.00 0.00 50 1012.4
20260510122859 19 94 3.2 11.3 0.00 0.00 0.00 50 1012.0
20260510122341 19 175 3.2 11.3 0.00 0.00 0.00 47 1012.0
20260510121829 19 175 4.8 11.3 0.00 0.00 0.00 51 1012.0
20260510121559 18 192 6.4 11.3 0.00 0.00 0.00 49 1012.4
20260510121315 19 152 4.8 11.3 0.00 0.00 0.00 51 1012.1
20260510120759 19 76 6.4 14.5 0.00 0.00 0.00 51 1012.2
20260510120245 19 112 4.8 14.5 0.00 0.00 0.00 51 1012.3
20260510120022 19 126 4.8 11.3 0.00 0.00 0.00 52 1012.7
20260510115735 19 282 3.2 8.0 0.00 0.00 0.00 53 1012.3
20260510115225 18 190 4.8 14.5 0.00 0.00 0.00 52 1012.4
20260510114713 18 178 6.4 14.5 0.00 0.00 0.00 53 1012.5
20260510114545 18 181 4.8 14.5 0.00 0.00 0.00 54 1012.9
20260510113646 18 129 6.4 14.5 0.00 0.00 0.00 54 1012.6
20260510113134 18 104 6.4 17.7 0.00 0.00 0.00 56 1012.6
20260510113005 18 69 6.4 17.7 0.00 0.00 0.00 56 1013.1
20260510112619 18 42 4.8 17.7 0.00 0.00 0.00 54 1012.6
20260510111625 17 128 4.8 12.9 0.00 0.00 0.00 54 1013.3
20260510111547 18 113 4.8 12.9 0.00 0.00 0.00 55 1012.8
20260510111033 18 88 6.4 11.3 0.00 0.00 0.00 55 1012.8
20260510110520 17 229 8.0 17.7 0.00 0.00 0.00 54 1012.9
20260510110043 17 161 6.4 17.7 0.00 0.00 0.00 54 1013.5
20260510110005 18 165 6.4 17.7 0.00 0.00 0.00 54 1013.0
20260510105446 18 98 4.8 14.5 0.00 0.00 0.00 56 1013.1
20260510104928 17 24 6.4 17.7 0.00 0.00 0.00 56 1013.1
20260510104557 17 94 4.8 17.7 0.00 0.00 0.00 56 1013.6
20260510104412 17 91 6.4 17.7 0.00 0.00 0.00 57 1013.2
20260510103342 17 83 6.4 16.1 0.00 0.00 0.00 58 1013.4
20260510103114 17 84 3.2 16.1 0.00 0.00 0.00 58 1013.9
20260510102831 17 130 6.4 16.1 0.00 0.00 0.00 58 1013.6
20260510102315 17 42 4.8 11.3 0.00 0.00 0.00 57 1013.7
20260510101802 17 13 4.8 14.5 0.00 0.00 0.00 58 1014.0
20260510101521 17 192 4.8 14.5 0.00 0.00 0.00 59 1014.4
20260510101238 17 105 6.4 12.9 0.00 0.00 0.00 59 1014.0
20260510100202 17 88 8.0 19.3 0.00 0.00 0.00 56 1014.1
20260510100033 17 145 9.7 19.3 0.00 0.00 0.00 57 1014.6
20260510095649 17 106 3.2 11.3 0.00 0.00 0.00 57 1014.2
20260510095137 17 42 3.2 14.5 0.00 0.00 0.00 59 1014.2
20260510093556 16 132 4.8 14.5 0.00 0.00 0.00 59 1014.4
20260510093041 16 138 6.4 16.1 0.00 0.00 0.00 57 1014.4
20260510093017 16 138 4.8 16.1 0.00 0.00 0.00 57 1014.9
20260510092530 16 67 8.0 16.1 0.00 0.00 0.00 57 1014.6
20260510092013 16 205 8.0 17.7 0.00 0.00 0.00 57 1014.6
20260510091537 16 141 6.4 17.7 0.00 0.00 0.00 56 1015.1
20260510091459 16 158 9.7 16.1 0.00 0.00 0.00 56 1014.6
20260510090949 16 102 8.0 17.7 0.00 0.00 0.00 56 1014.6
20260510090437 16 113 6.4 19.3 0.00 0.00 0.00 57 1014.7
20260510090104 15 125 6.4 19.3 0.00 0.00 0.00 56 1015.2
20260510085922 16 82 8.0 19.3 0.00 0.00 0.00 56 1014.8
20260510085407 16 75 9.7 19.3 0.00 0.00 0.00 58 1014.8
20260510084851 15 148 9.7 20.9 0.00 0.00 0.00 57 1014.9
20260510084518 15 110 11.3 22.5 0.00 0.00 0.00 56 1015.4
20260510084337 15 121 9.7 22.5 0.00 0.00 0.00 57 1014.9
20260510083830 15 76 11.3 22.5 0.00 0.00 0.00 57 1014.9
20260510083316 15 127 11.3 19.3 0.00 0.00 0.00 57 1014.9
20260510083049 15 76 11.3 19.3 0.00 0.00 0.00 57 1015.5
20260510082805 15 103 9.7 20.9 0.00 0.00 0.00 58 1015.0
20260510082252 15 128 8.0 20.9 0.00 0.00 0.00 59 1015.0
20260510081747 15 97 9.7 22.5 0.00 0.00 0.00 59 1015.2
20260510081523 15 63 6.4 20.9 0.00 0.00 0.00 60 1015.7
20260510081242 15 71 9.7 22.5 0.00 0.00 0.00 59 1015.3
20260510080228 15 36 11.3 22.5 0.00 0.00 0.00 60 1015.5
20260510080100 14 52 8.0 20.9 0.00 0.00 0.00 61 1016.0
20260510075211 14 99 11.3 22.5 0.00 0.00 0.00 61 1015.6
20260510074709 14 64 9.7 22.5 0.00 0.00 0.00 62 1015.6
20260510074545 13 146 8.0 22.5 0.00 0.00 0.00 62 1016.1
20260510074200 14 90 9.7 22.5 0.00 0.00 0.00 62 1015.7
20260510073655 13 46 11.3 20.9 0.00 0.00 0.00 62 1015.8
20260510073149 13 111 12.9 24.1 0.00 0.00 0.00 65 1015.7
20260510073030 13 111 11.3 24.1 0.00 0.00 0.00 65 1016.3
20260510072135 13 136 11.3 25.7 0.00 0.00 0.00 66 1015.6
20260510071627 13 121 9.7 19.3 0.00 0.00 0.00 68 1015.8
20260510071501 13 142 9.7 19.3 0.00 0.00 0.00 68 1016.3
20260510071119 13 125 9.7 17.7 0.00 0.00 0.00 69 1015.9
20260510070109 12 104 8.0 17.7 0.00 0.00 0.00 70 1016.0
20260510070045 12 99 9.7 17.7 0.00 0.00 0.00 70 1016.5
20260510065555 12 96 8.0 17.7 0.00 0.00 0.00 72 1016.0
20260510065051 12 121 9.7 17.7 0.00 0.00 0.00 73 1016.0
20260510064550 12 136 11.3 20.9 0.00 0.00 0.00 76 1016.0
20260510064532 11 129 6.4 20.9 0.00 0.00 0.00 76 1016.5
20260510064045 11 101 12.9 20.9 0.00 0.00 0.00 75 1016.0
20260510063539 11 71 11.3 20.9 0.00 0.00 0.00 76 1015.9
20260510063157 11 128 12.9 20.9 0.00 0.00 0.00 77 1016.5
20260510062508 11 126 11.3 19.3 0.00 0.00 0.00 80 1016.0
20260510062010 11 123 9.7 19.3 0.00 0.00 0.00 83 1015.9
20260510061538 11 127 6.4 19.3 0.00 0.00 0.00 84 1016.4
20260510061500 11 128 6.4 19.3 0.00 0.00 0.00 85 1015.9
20260510060946 11 122 4.8 11.3 0.00 0.00 0.00 87 1015.8
20260510060015 10 101 4.8 17.7 0.00 0.00 0.00 91 1016.3
20260510055924 10 128 6.4 17.7 0.00 0.00 0.00 91 1015.7
20260510054638 9 71 4.8 14.5 0.00 0.00 0.00 95 1016.4
20260510054355 9 75 6.4 14.5 0.00 0.00 0.00 95 1015.9
20260510053845 9 97 6.4 17.7 0.00 0.00 0.00 96 1016.0
20260510053332 8 84 6.4 17.7 0.00 0.00 0.00 96 1015.9
20260510053103 8 85 8.0 17.7 0.00 0.00 0.00 96 1016.6
20260510052819 8 94 4.8 14.5 0.00 0.00 0.00 96 1016.0
20260510052307 8 101 4.8 11.3 0.00 0.00 0.00 97 1016.1
20260510051753 8 22 3.2 9.7 0.00 0.00 0.00 97 1016.2
20260510051529 8 53 3.2 9.7 0.00 0.00 0.00 97 1016.7
20260510051239 8 101 3.2 9.7 0.00 0.00 0.00 97 1016.2
20260510050725 8 39 1.6 4.8 0.00 0.00 0.00 97 1016.3
20260510050215 7 38 0.0 1.6 0.00 0.00 0.00 97 1016.3
20260510050048 7 18 0.0 1.6 0.00 0.00 0.00 97 1016.9
20260510045704 7 18 0.0 1.6 0.00 0.00 0.00 97 1016.3
20260510045151 7 17 0.0 1.6 0.00 0.00 0.00 97 1016.4
20260510044639 6 17 0.0 1.6 0.00 0.00 0.00 97 1016.5
20260510044509 6 17 0.0 1.6 0.00 0.00 0.00 97 1017.1
20260510043614 5 17 0.0 0.0 0.00 0.00 0.00 97 1016.6
20260510043105 5 17 0.0 0.0 0.00 0.00 0.00 96 1016.5
20260510043038 5 17 0.0 0.0 0.00 0.00 0.00 96 1017.1
20260510042549 5 17 0.0 0.0 0.00 0.00 0.00 96 1016.5
20260510042040 4 17 0.0 0.0 0.00 0.00 0.00 96 1016.6
20260510041614 3 17 0.0 0.0 0.00 0.00 0.00 96 1017.2
20260510041536 4 17 0.0 0.0 0.00 0.00 0.00 96 1016.7
20260510041023 3 17 0.0 0.0 0.00 0.00 0.00 96 1016.7
20260510040513 3 17 0.0 0.0 0.00 0.00 0.00 96 1016.7
20260510040038 3 17 0.0 0.0 0.00 0.00 0.00 96 1017.3
20260510040001 3 17 0.0 0.0 0.00 0.00 0.00 96 1016.7
20260510035449 3 17 0.0 0.0 0.00 0.00 0.00 96 1016.8
20260510034929 2 17 0.0 0.0 0.00 0.00 0.00 96 1016.8
20260510034556 2 17 0.0 0.0 0.00 0.00 0.00 96 1017.5
20260510034418 2 17 0.0 0.0 0.00 0.00 0.00 96 1016.9
20260510033351 2 17 0.0 0.0 0.00 0.00 0.00 96 1016.9
20260510033018 2 17 0.0 0.0 0.00 0.00 0.00 96 1017.4
20260510032836 2 17 0.0 0.0 0.00 0.00 0.00 96 1016.9
20260510032323 2 17 0.0 0.0 0.00 0.00 0.00 96 1016.9
20260510031806 2 17 0.0 0.0 0.00 0.00 0.00 95 1016.9
20260510031541 2 17 0.0 0.0 0.00 0.00 0.00 95 1017.5
20260510031252 2 17 0.0 0.0 0.00 0.00 0.00 95 1016.9
20260510030736 2 17 0.0 0.0 0.00 0.00 0.00 95 1016.9
20260510030221 2 17 0.0 0.0 0.00 0.00 0.00 95 1017.0
20260510030052 2 17 0.0 0.0 0.00 0.00 0.00 95 1017.5
20260510025706 2 17 0.0 0.0 0.00 0.00 0.00 95 1016.9
20260510025152 2 17 0.0 0.0 0.00 0.00 0.00 95 1016.9
20260510024636 2 17 0.0 0.0 0.00 0.00 0.00 95 1016.9
20260510024611 2 17 0.0 0.0 0.00 0.00 0.00 95 1017.4
20260510024122 2 17 0.0 0.0 0.00 0.00 0.00 95 1016.9
20260510023608 2 17 0.0 0.0 0.00 0.00 0.00 95 1016.8
20260510023054 2 17 0.0 0.0 0.00 0.00 0.00 95 1016.9
20260510023032 2 17 0.0 0.0 0.00 0.00 0.00 95 1017.4
20260510022543 2 17 0.0 0.0 0.00 0.00 0.00 95 1016.9
20260510022025 2 17 0.0 0.0 0.00 0.00 0.00 95 1016.9
20260510021546 2 17 0.0 0.0 0.00 0.00 0.00 95 1017.4
20260510021508 2 17 0.0 0.0 0.00 0.00 0.00 95 1016.9
20260510020953 2 17 0.0 0.0 0.00 0.00 0.00 95 1016.9
20260510020438 2 17 0.0 0.0 0.00 0.00 0.00 95 1016.9
20260510020104 2 17 0.0 0.0 0.00 0.00 0.00 95 1017.5
20260510015923 3 17 0.0 0.0 0.00 0.00 0.00 95 1017.1
20260510015408 3 17 0.0 0.0 0.00 0.00 0.00 95 1017.0
20260510014852 3 17 0.0 0.0 0.00 0.00 0.00 95 1017.1
20260510014520 2 17 0.0 0.0 0.00 0.00 0.00 95 1017.6
20260510014341 3 17 0.0 0.0 0.00 0.00 0.00 95 1017.1
20260510013827 3 17 0.0 0.0 0.00 0.00 0.00 95 1017.1
20260510013312 3 17 0.0 0.0 0.00 0.00 0.00 95 1017.1
20260510013038 3 17 0.0 0.0 0.00 0.00 0.00 95 1017.6
20260510012757 3 17 0.0 0.0 0.00 0.00 0.00 95 1017.1
20260510012240 3 17 0.0 0.0 0.00 0.00 0.00 95 1017.1
20260510011727 3 17 0.0 0.0 0.00 0.00 0.00 95 1017.1
20260510011558 3 17 0.0 0.0 0.00 0.00 0.00 95 1017.6
20260510011210 3 17 0.0 0.0 0.00 0.00 0.00 95 1017.1
20260510010656 3 17 0.0 0.0 0.00 0.00 0.00 95 1017.1
20260510010133 3 17 0.0 0.0 0.00 0.00 0.00 95 1017.2
20260510010007 3 17 0.0 0.0 0.00 0.00 0.00 95 1017.7
20260510005623 3 17 0.0 0.0 0.00 0.00 0.00 95 1017.2
20260510005116 3 17 0.0 0.0 0.00 0.00 0.00 95 1017.3
20260510004605 3 17 0.0 0.0 0.00 0.00 0.00 94 1017.2
20260510004541 3 17 0.0 0.0 0.00 0.00 0.00 94 1017.7
20260510004049 3 17 0.0 0.0 0.00 0.00 0.00 95 1017.2
20260510003535 4 17 0.0 0.0 0.00 0.00 0.00 95 1017.3
20260510003106 3 17 0.0 0.0 0.00 0.00 0.00 94 1017.8
20260510003027 4 17 0.0 0.0 0.00 0.00 0.00 94 1017.3
20260510001634 4 17 0.0 0.0 0.00 0.00 0.00 94 1017.9
20260510000949 4 17 0.0 0.0 0.00 0.00 0.00 94 1017.5
20260510000441 5 17 0.0 0.0 0.00 0.00 0.00 94 1017.6
20260510000119 4 17 0.0 0.0 0.00 0.00 0.00 94 1018.1
20260509235937 5 17 0.0 0.0 0.00 0.00 0.00 94 1017.6
20260509235434 5 18 0.0 0.0 0.00 0.00 0.00 94 1017.6
20260509234921 5 17 0.0 0.0 0.00 0.00 0.00 94 1017.7
20260509234656 5 17 0.0 0.0 0.00 0.00 0.00 94 1018.2
20260509233903 5 17 0.0 0.0 0.00 0.00 0.00 94 1017.6
20260509233402 5 17 0.0 0.0 0.00 0.00 0.00 94 1017.7
20260509233035 5 17 0.0 0.0 0.00 0.00 0.00 94 1018.1
20260509232854 5 17 0.0 0.0 0.00 0.00 0.00 93 1017.7
20260509232344 5 17 0.0 0.0 0.00 0.00 0.00 94 1017.8
20260509231842 5 17 0.0 0.0 0.00 0.00 0.00 93 1017.8
20260509231523 5 17 0.0 0.0 0.00 0.00 0.00 93 1018.4
20260509231340 5 17 0.0 0.0 0.00 0.00 0.00 93 1017.9
20260509230836 5 17 0.0 0.0 0.00 0.00 0.00 93 1017.9
20260509230335 5 17 0.0 0.0 0.00 0.00 0.00 93 1018.0
20260509230013 5 17 0.0 0.0 0.00 0.00 0.00 93 1018.5
20260509225832 5 17 0.0 0.0 0.00 0.00 0.00 93 1017.9
20260509225328 6 18 0.0 0.0 0.00 0.00 0.00 93 1018.0
20260509224829 6 17 0.0 0.0 0.00 0.00 0.00 93 1018.0
20260509224501 5 17 0.0 0.0 0.00 0.00 0.00 93 1018.5
20260509224323 6 17 0.0 0.0 0.00 0.00 0.00 93 1018.1
20260509223816 6 17 0.0 0.0 0.00 0.00 0.00 93 1018.1
20260509223256 6 17 0.0 0.0 0.00 0.00 0.00 92 1018.1
20260509223030 6 17 0.0 0.0 0.00 0.00 0.00 92 1018.6
20260509222246 6 17 0.0 0.0 0.00 0.00 0.00 92 1018.1
20260509221725 6 17 0.0 0.0 0.00 0.00 0.00 92 1018.2
20260509221606 6 17 0.0 0.0 0.00 0.00 0.00 92 1018.7
20260509221214 6 17 0.0 0.0 0.00 0.00 0.00 92 1018.2
20260509220658 6 17 0.0 0.0 0.00 0.00 0.00 92 1018.2
20260509220151 7 17 0.0 0.0 0.00 0.00 0.00 92 1018.2
20260509220031 6 17 0.0 0.0 0.00 0.00 0.00 92 1018.7
20260509215651 7 17 0.0 0.0 0.00 0.00 0.00 92 1018.3
20260509215149 7 17 0.0 0.0 0.00 0.00 0.00 91 1018.3
20260509214641 7 18 0.0 0.0 0.00 0.00 0.00 91 1018.3
20260509214516 7 17 0.0 0.0 0.00 0.00 0.00 91 1018.7
20260509214137 7 17 0.0 0.0 0.00 0.00 0.00 91 1018.3
20260509213628 7 17 0.0 0.0 0.00 0.00 0.00 91 1018.3
20260509213112 7 17 0.0 0.0 0.00 0.00 0.00 90 1018.3
20260509213046 7 17 0.0 0.0 0.00 0.00 0.00 90 1018.8
20260509212600 8 17 0.0 0.0 0.00 0.00 0.00 90 1018.3
20260509212050 8 17 0.0 0.0 0.00 0.00 0.00 90 1018.5
20260509211545 8 17 0.0 0.0 0.00 0.00 0.00 90 1018.5
20260509211527 8 17 0.0 0.0 0.00 0.00 0.00 90 1018.8
20260509210542 8 17 0.0 0.0 0.00 0.00 0.00 90 1018.5
20260509210038 8 17 0.0 0.0 0.00 0.00 0.00 90 1018.6
20260509210028 8 17 0.0 0.0 0.00 0.00 0.00 90 1018.9
20260509205534 8 17 0.0 0.0 0.00 0.00 0.00 91 1018.5
20260509205035 8 18 0.0 1.6 0.00 0.00 0.00 91 1018.6
20260509204600 8 17 0.0 1.6 0.00 0.00 0.00 91 1019.0
20260509204022 8 17 0.0 0.0 0.00 0.00 0.00 91 1018.6
20260509203049 8 17 0.0 0.0 0.00 0.00 0.00 91 1019.0
20260509203002 8 17 0.0 0.0 0.00 0.00 0.00 91 1018.7
20260509201944 8 17 0.0 0.0 0.00 0.00 0.00 90 1018.7
20260509201514 8 17 0.0 0.0 0.00 0.00 0.00 90 1019.0
20260509201438 8 17 0.0 0.0 0.00 0.00 0.00 90 1018.7
20260509200927 8 17 0.0 0.0 0.00 0.00 0.00 90 1018.8
20260509200415 8 17 0.0 0.0 0.00 0.00 0.00 90 1018.8
20260509200053 8 17 0.0 0.0 0.00 0.00 0.00 90 1019.1
20260509195902 8 17 0.0 0.0 0.00 0.00 0.00 89 1018.7
20260509194844 8 17 0.0 0.0 0.00 0.00 0.00 89 1018.7
20260509194511 8 17 0.0 0.0 0.00 0.00 0.00 89 1019.0
20260509194332 8 17 0.0 0.0 0.00 0.00 0.00 89 1018.6
20260509193830 8 17 0.0 0.0 0.00 0.00 0.00 88 1018.7
20260509193331 8 17 0.0 0.0 0.00 0.00 0.00 87 1018.7
20260509193042 8 17 0.0 0.0 0.00 0.00 0.00 87 1019.0
20260509192829 8 17 0.0 0.0 0.00 0.00 0.00 87 1018.7
20260509192331 8 17 0.0 0.0 0.00 0.00 0.00 86 1018.7
20260509191822 8 17 0.0 0.0 0.00 0.00 0.00 86 1018.7
20260509191558 8 17 0.0 0.0 0.00 0.00 0.00 85 1019.0
20260509191310 9 17 0.0 3.2 0.00 0.00 0.00 85 1018.7
20260509190758 9 17 0.0 3.2 0.00 0.00 0.00 84 1018.6
20260509190243 9 18 0.0 0.0 0.00 0.00 0.00 83 1018.6
20260509190014 9 18 0.0 0.0 0.00 0.00 0.00 82 1018.9
20260509184712 10 18 0.0 0.0 0.00 0.00 0.00 80 1018.5
20260509184544 10 18 0.0 0.0 0.00 0.00 0.00 79 1018.9
20260509184156 11 18 0.0 0.0 0.00 0.00 0.00 79 1018.5
20260509183121 11 18 0.0 0.0 0.00 0.00 0.00 76 1018.5
20260509183056 11 18 0.0 0.0 0.00 0.00 0.00 76 1018.9
20260509182055 12 18 0.0 0.0 0.00 0.00 0.00 74 1018.5
20260509181516 11 18 0.0 0.0 0.00 0.00 0.00 73 1018.8
20260509181026 12 18 0.0 3.2 0.00 0.00 0.00 73 1018.3
20260509180516 12 18 1.6 3.2 0.00 0.00 0.00 73 1018.3
20260509180142 12 18 0.0 6.4 0.00 0.00 0.00 73 1018.7
20260509180002 12 18 1.6 6.4 0.00 0.00 0.00 73 1018.3
20260509175445 12 42 0.0 4.8 0.00 0.00 0.00 73 1018.3
20260509174658 12 53 0.0 4.8 0.00 0.00 0.00 73 1018.7
20260509174417 12 54 1.6 4.8 0.00 0.00 0.00 73 1018.2
20260509173904 12 28 1.6 4.8 0.00 0.00 0.00 73 1018.3
20260509173350 12 29 1.6 4.8 0.00 0.00 0.00 73 1018.5
20260509173018 12 29 1.6 4.8 0.00 0.00 0.00 73 1018.8
20260509172838 12 39 1.6 4.8 0.00 0.00 0.00 73 1018.3
20260509172327 12 40 3.2 6.4 0.00 0.00 0.00 72 1018.3
20260509171810 12 41 1.6 6.4 0.00 0.00 0.00 72 1018.3
20260509171545 12 59 3.2 6.4 0.00 0.00 0.00 71 1018.7
20260509171256 12 52 1.6 4.8 0.00 0.00 0.00 71 1018.3